WESTFORD NEEDLES *, 3267

Orbit data source: Space-Track

WESTFORD NEEDLES *, 3267 is space debris in LEO originally from a launch on Thu, 09 May 1963 UTC launched from the Air Force Western Test Range (AFWTR). Debris objects in space refer to the collection of defunct objects orbiting the Earth. Examples of debris include non-operational satellites, rocket bodies, and fragments generated from explosions, collisions, or faulty payload assembly.

Loading next visibility...
Identifier
3267, 1963-014CF
Orbit
LEO
Country
Flag of USUS
Related business
Manufacturer
RCA Victor
Mission
Spacecraft
Bus & Motor
Unknown
Mass
Unknown
Launch date (UTC)
1963-05-09 (63 years ago)
Launch vehicle
Unknown
Launch site
Air Force Western Test Range (AFWTR)
Object type
Payload
Rocket body
Debris
Shape & HBR
Unknown shape, 0.1 m
Radar Cross Section
Small (<0.1 m²)

Expand to show TLE details & history
Last TLE update: 6 days ago

TLE from 6 days ago
0 WESTFORD NEEDLES *
1 03267U 63014CF  26106.38904804  .00000042  00000-0  31191-4 0  9998
2 03267  88.3723  87.9384 1686515 258.0262  82.7594 11.34119393535336
Epoch: 2026-04-16T09:20Z
TLE epoch observation values (Epoch: 2026-04-16T09:20:13.750Z)
Latitude
-0.00005°
Longitude
103.34381°
Altitude
2,052.133 km
Speed
6.853 km/s
True Right ascension
05h 51m 45s
True Declination
0° 00' 00"
Sunlit
Object was in daylight at epoch
Visualization orbit readout
Latitude
Unknown
Longitude
Unknown
Altitude
Unknown
Speed
Unknown
Apparent Right ascension
Unknown
Apparent Declination
Unknown
Sunlit
N/A
Visualization observer readout
Local Sidereal Time
01:00:10
Azimuth
Unknown
Elevation
Unknown
Doppler factor
Unknown
Orbital elements
Apogee altitude
3,398.114 km
Perigee altitude
576.436 km
Semi-major axis
8,365.412 km
Eccentricity
0.16865
Inclination
88.3723°
RAAN
87.9384°
Arg. of periapsis
258.0262°
True anomaly
102.08028°
Mean anomaly
82.7594°
Eccentric anomaly
92.41384°
Mean motion
2.83669 °/min
Orbital period
126.91 mins
BSTAR
0.000031191
Loading maneuver chart data...
Computing Atmospheric mass density...

Documentation

Showing up to 5 results
|